Location: ??
(35.5052°N, 139.7262°E)
Time: 17:16:06
(UTC+00:00)

Cosmos 2297 - Pass Details

Date: 20 June 2021
Orbit: 836 x 858 km, 71.0° (Epoch: 29 July)

Event Time Altitude Azimuth Distance (km) Brightness Sun altitude
Rises 14:29:33 0° 342° (NNW) 3,395 7.9 -31.0°
Reaches altitude 10° 14:32:02 10° 346° (NNW) 2,460 7.0 -31.0°
Enters shadow 14:37:01 57° 38° (NE) 984 4.1 -31.0°
